Regional Weather Roundup
Issued by NWS

Home | Current Version | Previous Version | Text Only | Print | Product List | Glossary On
Versions: 1 2 3 4 5 6 7 8 9 10 11 12 13 14 15 16 17 18 19 20 21 22 23 24 25 26 27 28 29 30 31 32 33 34 35 36 37 38 39 40 41 42 43 44 45 46 47 48 49 50
500
ASUS43 KTOP 291559
RWRKS

WEATHER ROUNDUP FOR KANSAS
NATIONAL WEATHER SERVICE GOODLAND KS
1100 AM CDT SAT APR 29 2017

NOTE:  "FAIR" INDICATES FEW OR NO CLOUDS BELOW 12,000 FEET WITH NO
SIGNIFICANT WEATHER AND/OR OBSTRUCTIONS TO VISIBILITY.

KSZ001>006-013>018-027>032-041>047-291700-
NORTHWEST KANSAS

CITY           SKY/WX    TMP DP  RH WIND       PRES   REMARKS
GOODLAND       LGT SNOW  32  31  96 N21G29    30.06R FOG     WCI  20
HAYS           LGT RAIN  40  38  93 N23G29    29.93F WCI  30
HILL CITY      LGT RAIN  39  36  89 N20G29    30.01F WCI  29
RUSSELL        CLOUDY    41  39  93 N21G26    29.92S
$$

KSZ061>065-074>080-084>089-291700-
SOUTHWEST KANSAS

CITY           SKY/WX    TMP DP  RH WIND       PRES   REMARKS
DODGE CITY     LGT RAIN  39  38  96 N25G35    29.86F FOG     WCI  28
ELKHART          N/A     31  33 100 N16         N/A  WCI  20
GARDEN CITY    LGT SNOW  33  32  96 N30G36    29.93F FOG     WCI  19
LIBERAL        CLOUDY    35  34  96 N20       29.94R WCI  24
$$

KSZ066>073-081>083-090>101-291700-
SOUTHEAST KANSAS

CITY           SKY/WX    TMP DP  RH WIND       PRES   REMARKS
CHANUTE        LGT RAIN  50  48  93 N17G30    29.71F
COFFEYVILLE    TSTM      53  50  89 NE14G23   29.68R
HUTCHINSON     RAIN      43  41  93 N22G31    29.78F
MEDICINE LODGE   N/A     42  40  92 N13G23    29.81R
NEWTON         LGT RAIN  43  42  97 NE14G24   29.85R
PARSONS        LGT RAIN  51  49  92 NE8G22    29.70R
WICHITA INTL   RAIN      45  44  97 N14G22    29.82R
WICHITA JABRA  LGT RAIN  45  44  97 NE16G28   29.79R
WINFIELD       RAIN      49  46  90 NE14G20   29.78R
$$

KSZ007>012-019>026-033>040-048>060-102>105-291700-
NORTHEAST KANSAS

CITY           SKY/WX    TMP DP  RH WIND       PRES   REMARKS
CONCORDIA      CLOUDY    41  40  96 NE16G26   29.93F
EMPORIA        LGT RAIN  45  45 100 NE21G31   29.74F
LAWRENCE       LGT RAIN  47  46  97 NE12G23   29.90F FOG
MANHATTAN      LGT RAIN  44  42  93 NE15G26   29.88F FOG
OLATHE IND     RAIN      47  46  97 N14       29.92R
OLATHE EXE     LGT RAIN  47  47 100 N14       29.91S
SALINA         LGT RAIN  45  42  89 N16G29    29.89S
TOPEKA BILLARD LGT RAIN  46  45  96 NE17G25   29.87F FOG
TOPEKA FORBES  LGT RAIN  47  45  93 NE13G24   29.83F FOG
$$




USA.gov is the U.S. government's official web portal to all federal, state and local government web resources and services.